Date String (YYYY-MM-DD hh:mm:ss) UTC,Instrument flags,Ambient pressure (hPa),Sample flow (lpm),Bypass flow (lpm),Sample temperature (°C),Ambient temperature (°C),ASC tube jacket temperature (°C),LED temperature (°C),Box temperature (°C),Sample RH (%),Span deviation,Mass concentration (μg/m³),Mass concentration (μg/m³),Mass concentration (μg/m³)
DateTimeUTC,F1_M11,P_M11,Q1_M11,Q2_M11,T1_M11,T2_M11,T3_M11,T4_M11,T5_M11,U1_M11,ZSPAN_M11,X2_M11,X0_M11,X1_M11
2022-06-14 15:00:00,,0821.0,5.00,0.00,29.9,29.1,00.0,38.8,31.8,20.0,0000.0,0009.88,0032.41,0003.33
2022-06-14 15:01:00,,0821.0,5.00,0.00,29.9,29.1,00.0,38.8,31.8,19.9,0000.0,0009.87,0032.27,0003.32
2022-06-14 15:02:00,,0821.0,5.01,0.00,29.9,29.1,00.0,38.8,31.8,19.8,0000.0,0009.93,0032.81,0003.32
2022-06-14 15:03:00,,0821.0,5.00,0.00,29.9,29.1,00.0,38.8,31.8,19.8,0000.0,0009.81,0032.79,0003.33
2022-06-14 15:04:00,,0821.0,4.98,0.00,29.9,29.1,00.0,38.8,31.8,19.8,0000.0,0009.84,0032.05,0003.32
2022-06-14 15:05:00,,0821.1,5.00,0.00,29.9,29.1,00.0,38.8,31.8,19.7,0000.0,0009.89,0032.06,0003.33
2022-06-14 15:06:00,,0821.1,4.99,0.00,30.0,29.1,00.0,38.8,31.8,19.6,0000.0,0010.02,0032.35,0003.35
2022-06-14 15:07:00,,0821.0,5.01,0.00,30.0,29.1,00.0,38.8,31.8,19.4,0000.0,0009.95,0032.27,0003.35
2022-06-14 15:08:00,,0821.0,5.01,0.00,30.0,29.1,00.0,38.8,31.8,19.4,0000.0,0009.76,0032.54,0003.36
2022-06-14 15:09:00,,0821.0,5.00,0.00,30.0,29.1,00.0,38.8,31.8,19.4,0000.0,0009.84,0032.61,0003.34
2022-06-14 15:10:00,,0821.0,5.00,0.00,30.0,29.1,00.0,38.8,31.9,19.4,0000.0,0009.80,0031.63,0003.33
2022-06-14 15:11:00,,0821.0,5.00,0.00,30.0,29.1,00.0,38.8,31.9,19.4,0000.0,0009.79,0031.78,0003.31
2022-06-14 15:12:00,,0821.0,4.99,0.00,30.0,29.1,00.0,38.9,31.9,19.4,0000.0,0009.65,0031.48,0003.30
2022-06-14 15:13:00,,0820.9,5.00,0.00,30.0,29.1,00.0,38.9,31.9,19.4,0000.0,0009.56,0031.48,0003.29
2022-06-14 15:14:00,,0820.9,5.02,0.00,30.0,29.1,00.0,38.9,31.9,19.4,0000.0,0009.57,0031.18,0003.29
2022-06-14 15:15:00,,0820.8,5.00,0.00,30.0,29.1,00.0,38.9,31.9,19.6,0000.0,0009.61,0031.84,0003.29
2022-06-14 15:16:00,,0820.8,4.99,0.00,30.0,29.1,00.0,38.9,31.9,19.7,0000.0,0009.63,0032.59,0003.28
2022-06-14 15:17:00,,0820.8,5.00,0.00,30.0,29.2,00.0,38.9,31.9,19.9,0000.0,0009.56,0032.08,0003.27
2022-06-14 15:18:00,,0820.8,5.00,0.00,30.0,29.2,00.0,38.9,31.9,20.0,0000.0,0009.51,0031.91,0003.25
2022-06-14 15:19:00,,0820.8,5.01,0.00,30.0,29.2,00.0,38.9,31.9,20.1,0000.0,0009.50,0031.14,0003.25
2022-06-14 15:20:00,,0820.8,5.00,0.00,30.0,29.2,00.0,38.9,31.9,20.3,0000.0,0009.44,0030.86,0003.25
2022-06-14 15:21:00,,0820.8,5.00,0.00,30.0,29.2,00.0,38.9,31.9,20.3,0000.0,0009.42,0031.20,0003.25
2022-06-14 15:22:00,,0820.8,5.00,0.00,30.0,29.2,00.0,38.9,31.9,20.2,0000.0,0009.31,0031.09,0003.25
2022-06-14 15:23:00,,0820.8,5.01,0.00,30.1,29.2,00.0,38.9,31.9,20.2,0000.0,0009.42,0030.62,0003.26
2022-06-14 15:24:00,,0820.9,5.01,0.00,30.1,29.2,00.0,38.9,31.9,20.0,0000.0,0009.45,0030.19,0003.25
2022-06-14 15:25:00,,0820.9,5.00,0.00,30.1,29.2,00.0,38.9,31.9,19.9,0000.0,0009.35,0030.32,0003.23
2022-06-14 15:26:00,,0820.9,5.01,0.00,30.1,29.2,00.0,38.9,31.9,19.9,0000.0,0009.42,0030.68,0003.24
2022-06-14 15:27:00,,0820.8,5.00,0.00,30.1,29.2,00.0,39.0,31.9,19.9,0000.0,0009.44,0031.03,0003.24
2022-06-14 15:28:00,,0820.9,5.00,0.00,30.1,29.2,00.0,39.0,31.9,19.7,0000.0,0009.45,0030.60,0003.24
2022-06-14 15:29:00,,0820.8,5.00,0.00,30.1,29.2,00.0,39.0,31.9,19.6,0000.0,0009.51,0030.78,0003.25
2022-06-14 15:30:00,,0820.9,5.00,0.00,30.1,29.3,00.0,39.0,32.0,19.7,0000.0,0009.63,0031.46,0003.28
2022-06-14 15:31:00,,0820.9,5.00,0.00,30.1,29.3,00.0,39.0,32.0,19.8,0000.0,0009.63,0032.21,0003.27
2022-06-14 15:32:00,,0821.0,5.00,0.00,30.1,29.3,00.0,39.0,32.0,19.6,0000.0,0009.66,0031.88,0003.26
2022-06-14 15:33:00,,0821.0,5.01,0.00,30.1,29.3,00.0,39.0,32.0,19.6,0000.0,0009.70,0031.31,0003.26
2022-06-14 15:34:00,,0821.0,5.00,0.00,30.1,29.3,00.0,39.0,32.0,19.5,0000.0,0009.69,0031.56,0003.25
2022-06-14 15:35:00,,0820.9,4.99,0.00,30.1,29.3,00.0,39.0,32.0,19.5,0000.0,0009.63,0031.72,0003.25
2022-06-14 15:36:00,,0820.9,5.00,0.00,30.1,29.3,00.0,39.0,31.9,19.6,0000.0,0009.60,0031.28,0003.26
2022-06-14 15:37:00,,0820.9,5.01,0.00,30.1,29.3,00.0,39.0,32.0,19.8,0000.0,0009.57,0030.52,0003.26
2022-06-14 15:38:00,,0820.9,4.99,0.00,30.1,29.3,00.0,39.0,32.0,19.9,0000.0,0009.46,0029.24,0003.27
2022-06-14 15:39:00,,0820.9,5.00,0.00,30.1,29.3,00.0,39.0,32.0,19.9,0000.0,0009.43,0029.63,0003.27
2022-06-14 15:40:00,,0820.9,4.99,0.00,30.1,29.3,00.0,39.0,32.0,19.9,0000.0,0009.43,0029.21,0003.28
2022-06-14 15:41:00,,0820.9,5.01,0.00,30.1,29.3,00.0,39.0,32.0,19.9,0000.0,0009.40,0029.18,0003.26
2022-06-14 15:42:00,,0820.8,5.00,0.00,30.2,29.3,00.0,39.0,32.0,19.9,0000.0,0009.43,0028.62,0003.26
2022-06-14 15:43:00,,0820.8,5.00,0.00,30.2,29.3,00.0,39.0,32.0,20.0,0000.0,0009.43,0028.70,0003.27
2022-06-14 15:44:00,,0820.9,5.00,0.00,30.2,29.3,00.0,39.1,32.0,20.0,0000.0,0009.41,0028.78,0003.26
2022-06-14 15:45:00,,0820.9,4.99,0.00,30.2,29.3,00.0,39.1,32.0,19.9,0000.0,0009.42,0028.79,0003.27
2022-06-14 15:46:00,,0820.9,4.99,0.00,30.2,29.4,00.0,39.1,32.0,19.8,0000.0,0009.45,0028.63,0003.28
2022-06-14 15:47:00,,0820.9,5.00,0.00,30.2,29.4,00.0,39.1,32.0,19.8,0000.0,0009.54,0029.64,0003.27
2022-06-14 15:48:00,,0820.8,4.99,0.00,30.2,29.4,00.0,39.1,32.1,19.8,0000.0,0009.48,0029.48,0003.26
2022-06-14 15:49:00,,0820.9,5.01,0.00,30.2,29.4,00.0,39.1,32.1,19.8,0000.0,0009.40,0028.95,0003.25
2022-06-14 15:50:00,,0820.9,4.99,0.00,30.2,29.4,00.0,39.1,32.1,19.7,0000.0,0009.44,0028.63,0003.23
2022-06-14 15:51:00,,0820.9,4.99,0.00,30.2,29.4,00.0,39.1,32.1,19.6,0000.0,0009.57,0029.31,0003.23
2022-06-14 15:52:00,,0820.8,5.00,0.00,30.2,29.4,00.0,39.1,32.1,19.6,0000.0,0009.62,0029.40,0003.24
2022-06-14 15:53:00,,0820.8,4.99,0.00,30.2,29.4,00.0,39.1,32.0,19.4,0000.0,0009.63,0029.66,0003.25
2022-06-14 15:54:00,,0820.9,5.01,0.00,30.2,29.4,00.0,39.1,32.0,19.3,0000.0,0009.65,0030.31,0003.26
2022-06-14 15:55:00,,0820.9,5.00,0.00,30.2,29.4,00.0,39.1,32.0,19.3,0000.0,0009.60,0030.60,0003.27
2022-06-14 15:56:00,,0820.9,5.00,0.00,30.2,29.4,00.0,39.1,32.0,19.1,0000.0,0009.61,0031.81,0003.27
2022-06-14 15:57:00,,0820.9,5.01,0.00,30.2,29.4,00.0,39.1,32.0,19.1,0000.0,0009.55,0032.37,0003.26
2022-06-14 15:58:00,,0820.9,5.00,0.00,30.2,29.4,00.0,39.1,32.0,19.0,0000.0,0009.51,0031.10,0003.28
2022-06-14 15:59:00,,0820.7,4.99,0.00,30.2,29.4,00.0,39.1,32.0,18.9,0000.0,0009.51,0031.65,0003.27
